Voltar ao catálogo

THOR ABLESTAR DEB

AtivoPO
NORAD 38521·DEBRIS·🇺🇸 United States

Lançado Sep 28, 1963 de Vandenberg Space Force Base

Loading…

Próximas Passagens (próximas 24 horas)

TLE

AtualizadoSource: Space-Track

Época: Sep 13, 2026, 12:56 UTC

1 38521U 63038Q   26256.53943558  .00000079  00000-0  11646-3 0  9999
2 38521  89.9682 332.7780 0042845  92.7579 333.6000 13.45441764647387

Acompanhe THOR ABLESTAR DEB em tempo real com AllMySat

Download on the App Store